N9VPV Weather Reports


time (UTC)temp
C
wind
direction
speed
KPH
gust
KPH
rain 1hr
cm
rain 24hr
cm
rain mn
cm
humidity
%
barometer
mb
20260906051534 23 17 3.2 14.5 0.00 0.00 0.00 87 1016.0
20260906050029 23 17 1.6 4.8 0.00 0.00 0.00 87 1015.8
20260906044523 23 27 1.6 6.4 0.00 0.00 0.00 87 1015.6
20260906043019 23 32 1.6 6.4 0.00 0.00 0.00 86 1015.5
20260906041517 23 80 0.0 0.0 0.00 0.00 0.00 86 1015.3
20260906040004 24 61 0.0 0.0 0.00 0.00 0.00 86 1015.1
20260906034458 24 61 0.0 4.8 0.00 0.00 0.00 85 1015.0
20260906032954 24 61 1.6 4.8 0.00 0.00 0.00 85 1014.8
20260906031451 24 25 1.6 6.4 0.00 0.00 0.00 85 1014.9
20260906025947 25 18 1.6 6.4 0.00 0.00 0.00 84 1014.9
20260906024442 25 34 3.2 12.9 0.00 0.00 0.00 84 1014.8
20260906022939 25 54 3.2 9.7 0.00 0.00 0.00 84 1014.6
20260906021439 25 44 3.2 11.3 0.00 0.00 0.00 83 1014.5
20260906015935 26 49 4.8 19.3 0.00 0.00 0.00 83 1014.0
20260906014435 26 69 4.8 12.9 0.00 0.00 0.00 83 1014.2
20260906012935 26 67 4.8 9.7 0.00 0.00 0.00 82 1014.1
20260906011435 27 54 4.8 12.9 0.00 0.00 0.00 81 1014.0
20260906005935 27 24 4.8 17.7 0.00 0.00 0.00 80 1013.7
20260906004433 28 44 6.4 20.9 0.00 0.00 0.00 78 1013.7
20260906002927 28 39 6.4 16.1 0.00 0.00 0.00 78 1013.5
20260906001420 29 10 4.8 9.7 0.00 0.00 0.00 77 1013.5
20260905235918 30 9 6.4 16.1 0.00 0.00 0.00 75 1013.3
20260905234417 30 21 6.4 14.5 0.00 0.00 0.00 75 1013.2
20260905232913 31 32 8.0 17.7 0.00 0.00 0.00 73 1013.0
20260905231410 31 13 6.4 16.1 0.00 0.00 0.00 71 1013.0
20260905225908 32 22 9.7 19.3 0.00 0.00 0.00 69 1012.8
20260905224406 32 21 4.8 14.5 0.00 0.00 0.00 68 1012.9
20260905222856 32 38 4.8 12.9 0.00 0.00 0.00 67 1012.8
20260905221356 33 17 3.2 9.7 0.00 0.00 0.00 65 1012.9
20260905215848 34 26 3.2 8.0 0.00 0.00 0.00 64 1012.8
20260905214350 33 5 4.8 14.5 0.00 0.00 0.00 65 1012.9
20260905212847 34 327 1.6 6.4 0.00 0.00 0.00 64 1012.8
20260905211346 33 42 3.2 9.7 0.00 0.00 0.00 65 1012.9
20260905205844 33 25 3.2 14.5 0.00 0.00 0.00 66 1013.1
20260905204342 33 348 1.6 8.0 0.00 0.00 0.00 68 1013.2
20260905202840 32 22 1.6 6.4 0.00 0.00 0.00 67 1013.1
20260905201331 33 337 3.2 9.7 0.00 0.00 0.00 67 1013.3
20260905195828 33 26 3.2 11.3 0.00 0.00 0.00 68 1013.4
20260905194328 33 346 4.8 12.9 0.00 0.00 0.00 69 1013.5
20260905192827 33 36 3.2 9.7 0.00 0.00 0.00 67 1013.8
20260905191324 33 88 3.2 8.0 0.00 0.00 0.00 67 1013.7
20260905185814 33 5 3.2 11.3 0.00 0.00 0.00 67 1013.7
20260905184311 33 29 4.8 12.9 0.00 0.00 0.00 65 1013.7
20260905182813 33 5 3.2 16.1 0.00 0.00 0.00 67 1013.7
20260905181303 33 336 3.2 12.9 0.00 0.00 0.00 66 1013.9
20260905175802 33 334 3.2 12.9 0.00 0.00 0.00 65 1014.0
20260905174258 33 288 3.2 16.1 0.00 0.00 0.00 69 1014.2
20260905172756 32 21 3.2 12.9 0.00 0.00 0.00 69 1014.3
20260905171251 32 45 3.2 12.9 0.00 0.00 0.00 70 1014.4
20260905165751 32 79 3.2 12.9 0.00 0.00 0.00 70 1014.4
20260905164250 32 63 6.4 12.9 0.00 0.00 0.00 71 1014.5
20260905162748 31 30 4.8 12.9 0.00 0.00 0.00 71 1014.4
20260905161246 31 18 3.2 11.3 0.00 0.00 0.00 72 1014.4
20260905155746 31 18 4.8 14.5 0.00 0.00 0.00 71 1014.4
20260905154245 31 355 3.2 12.9 0.00 0.00 0.00 73 1014.4
20260905152746 31 305 4.8 11.3 0.00 0.00 0.00 72 1014.4
20260905151237 30 5 1.6 6.4 0.00 0.00 0.00 73 1014.2
20260905145724 30 344 1.6 4.8 0.00 0.00 0.00 73 1014.0
20260905144224 29 0 1.6 6.4 0.00 0.00 0.00 76 1013.9
20260905142722 28 340 1.6 6.4 0.00 0.00 0.00 77 1013.9
20260905141221 28 355 1.6 4.8 0.00 0.00 0.00 80 1013.8
20260905135719 27 0 0.0 3.2 0.00 0.00 0.00 80 1013.4
20260905134212 27 244 0.0 4.8 0.00 0.00 0.00 81 1013.2
20260905132713 26 225 0.0 8.0 0.00 0.00 0.00 82 1013.2
20260905131208 26 184 0.0 3.2 0.00 0.00 0.00 83 1013.3
20260905125649 25 184 0.0 3.2 0.00 0.00 0.00 85 1013.3
20260905124152 25 192 0.0 1.6 0.00 0.00 0.00 87 1013.5
20260905122644 24 192 0.0 1.6 0.00 0.00 0.00 87 1013.3
20260905121136 24 192 0.0 1.6 0.00 0.00 0.00 87 1013.0
20260905115635 24 188 0.0 0.0 0.00 0.00 0.00 87 1013.0
20260905114125 24 188 0.0 0.0 0.00 0.00 0.00 87 1012.9
20260905112620 24 188 0.0 3.2 0.00 0.00 0.00 86 1012.7
20260905111121 25 188 0.0 0.0 0.00 0.00 0.00 87 1012.5
20260905105617 25 188 0.0 3.2 0.00 0.00 0.00 87 1012.4
20260905104114 25 188 0.0 1.6 0.00 0.00 0.00 87 1012.5
20260905102612 25 188 0.0 0.0 0.00 0.00 0.00 86 1012.6
20260905101106 25 188 0.0 1.6 0.00 0.00 0.00 86 1012.7
20260905095603 25 188 0.0 3.2 0.00 0.00 0.00 87 1012.7
20260905094057 25 188 0.0 0.0 0.00 0.00 0.00 86 1012.7
20260905092548 25 188 0.0 0.0 0.00 0.00 0.00 86 1012.6
20260905091036 25 188 0.0 0.0 0.00 0.00 0.00 85 1012.6
20260905085523 25 188 0.0 0.0 0.00 0.00 0.00 85 1012.6
20260905084023 26 188 0.0 0.0 0.00 0.00 0.00 84 1012.8
20260905082525 26 188 0.0 1.6 0.00 0.00 0.00 84 1012.9
20260905081004 26 188 0.0 3.2 0.00 0.00 0.00 84 1012.9
20260905075505 26 188 0.0 3.2 0.00 0.00 0.00 84 1013.0
20260905073958 26 188 0.0 0.0 0.00 0.00 0.00 84 1012.9
20260905072451 26 188 0.0 0.0 0.00 0.00 0.00 84 1013.0
20260905070949 26 188 0.0 1.6 0.00 0.00 0.00 85 1013.0
20260905065436 26 188 0.0 3.2 0.00 0.00 0.00 85 1012.9
20260905063935 26 188 0.0 0.0 0.00 0.00 0.00 85 1013.2
20260905062432 26 188 0.0 1.6 0.00 0.00 0.00 85 1013.2
20260905060932 26 188 0.0 0.0 0.00 0.00 0.00 85 1013.0
20260905055423 26 188 0.0 1.6 0.00 0.00 0.00 85 1013.1
20260905053913 26 188 0.0 0.0 0.00 0.00 0.00 85 1013.1